Wind_Speed
28 27 27 26 24 22 21 21 21 21 21 21 22 23 23 24 26 28 30 33 35 38 41 44 47 50 53 57 61 65 69 72 75 78 81 84 87 90 93 96 99 102 106 110 113 117 120 122 125 128 130 132 133 133 132 131 129 128 126 125 124 123 122 121 121 120 119 117 116 114 112 111 110 108 107 105 104 103 102 101 100 99 97 95 93 90
27 27 26 26 24 23 21 21 21 22 21 21 22 22 23 24 25 27 29 32 34 37 40 43 45 48 51 55 58 62 66 70 73 77 80 82 85 88 91 94 97 100 104 107 111 114 117 120 122 125 128 130 132 132 132 131 129 128 127 125 124 123 122 121 120 120 119 118 116 115 113 111 110 109 107 106 104 103 102 101 100 99 98 96 94 91
25 25 25 24 23 22 21 21 22 22 22 22 22 22 23 23 24 26 28 30 33 36 39 41 44 47 50 53 56 60 64 68 72 75 78 81 84 86 89 92 95 98 101 105 108 112 114 117 119 122 125 128 130 131 132 131 130 128 127 125 124 123 122 121 120 119 118 118 116 115 113 112 111 109 108 106 105 103 102 101 100 99 98 96 94 92
25 24 24 23 22 21 21 22 22 23 23 22 22 22 22 23 24 25 27 29 32 34 37 40 42 45 48 51 55 58 62 66 70 73 76 79 82 85 87 90 93 96 99 102 106 109 112 114 117 119 122 125 128 130 131 131 130 128 127 126 124 123 122 121 120 119 118 117 116 115 114 112 111 110 108 107 105 104 102 101 100 99 98 97 95 93
26 25 24 23 22 21 20 21 22 23 23 23 22 21 22 22 23 24 26 28 30 32 35 38 40 43 46 49 53 56 60 64 67 71 74 77 80 83 85 88 90 93 96 100 103 106 109 112 114 117 120 123 126 129 130 130 130 129 127 126 125 124 122 121 120 119 118 117 116 115 114 113 111 110 108 107 106 104 102 101 100 99 98 97 96 94
27 26 26 24 22 21 20 20 22 23 23 22 22 21 21 22 23 24 25 27 29 31 33 36 38 41 44 47 51 54 58 61 65 69 72 75 78 81 83 86 88 91 94 97 101 104 107 110 112 115 118 121 125 127 129 130 130 129 128 126 125 124 123 122 120 119 118 117 116 115 114 113 112 110 109 108 106 105 103 102 100 99 98 97 96 95
27 27 27 25 23 21 20 20 21 22 22 22 21 20 20 21 22 23 25 26 28 30 32 34 37 39 42 45 48 52 55 59 63 66 70 73 76 79 81 84 86 89 92 95 98 102 105 108 111 114 116 120 123 126 128 130 130 129 128 127 126 124 123 122 121 119 118 117 116 115 114 113 112 111 110 108 107 105 104 103 101 100 98 97 96 96
27 27 26 26 24 22 20 19 19 20 21 20 20 20 20 21 22 23 24 26 27 29 31 33 35 38 40 43 46 49 53 56 60 64 67 71 74 76 79 82 84 87 90 93 96 99 102 105 108 111 114 117 120 123 126 128 129 129 128 127 126 125 123 122 121 120 118 117 116 115 114 114 113 112 110 109 108 106 105 104 102 100 98 97 97 96
27 26 26 25 24 22 19 18 18 19 19 19 19 19 20 21 22 23 24 25 27 28 30 32 34 37 39 42 44 47 51 54 58 61 65 68 72 75 77 80 82 85 88 91 94 96 99 102 105 108 111 114 117 120 124 126 128 128 128 127 126 125 123 122 121 120 119 118 116 116 115 114 113 112 111 110 109 107 106 104 102 100 98 97 96 96
27 26 25 25 24 22 19 17 16 17 18 18 18 18 19 21 22 23 24 25 27 28 30 32 34 36 38 40 43 45 48 52 55 59 63 66 70 73 75 78 80 82 85 88 91 93 96 99 102 105 108 111 114 117 121 124 126 127 127 127 126 125 123 122 121 120 119 118 117 116 115 114 113 112 111 110 109 108 107 105 103 100 98 97 97 96
26 25 25 24 23 21 19 17 16 16 17 17 17 18 19 20 22 23 24 26 27 29 30 31 33 35 37 39 41 44 47 50 53 56 60 64 67 70 73 75 78 80 82 85 88 90 93 96 99 102 105 109 112 115 118 122 124 126 127 126 125 125 124 123 122 121 120 119 117 116 115 115 114 113 112 111 110 109 107 105 103 101 99 98 97 96
27 25 24 23 23 21 19 17 15 15 16 16 17 18 19 20 22 23 24 26 28 29 30 32 33 35 37 38 40 43 45 48 51 54 57 61 64 67 70 73 75 77 80 82 85 88 91 94 97 100 103 107 110 113 116 120 123 125 126 126 125 125 124 123 122 121 120 119 118 117 116 115 114 113 112 111 110 109 108 106 104 101 100 99 98 97
28 26 24 23 22 21 20 18 15 15 15 16 17 18 19 20 22 23 25 26 28 29 31 32 33 34 36 38 39 41 44 46 49 52 56 59 62 65 68 70 72 75 77 79 82 85 88 91 94 98 101 104 108 111 114 118 121 123 125 125 125 125 125 124 123 122 121 120 119 118 117 115 115 114 113 112 111 110 108 106 104 102 101 99 99 98
30 27 24 23 22 21 20 18 16 14 15 15 16 18 19 20 22 23 25 27 28 29 30 32 33 34 36 37 38 40 42 45 48 50 53 57 60 63 66 68 70 73 75 77 79 82 86 89 92 95 99 102 106 109 112 116 119 122 124 125 125 125 125 124 124 123 122 121 120 118 117 116 115 114 113 112 111 110 109 107 105 103 101 100 99 98
32 29 26 23 22 21 20 18 16 14 14 15 16 17 19 20 22 23 25 27 28 29 30 31 33 34 35 37 38 40 41 44 46 48 51 54 58 61 64 66 68 70 72 74 77 80 84 86 90 93 97 100 103 107 110 113 117 120 122 124 125 125 125 125 124 123 122 121 120 119 118 117 116 115 114 113 112 111 109 108 106 104 102 101 100 98
33 31 27 24 22 21 20 18 16 14 14 15 16 17 19 20 22 23 25 27 28 29 30 31 33 34 35 37 38 39 41 42 45 47 50 53 56 58 61 63 65 67 70 72 75 78 81 84 87 91 94 98 102 105 108 112 115 118 120 123 124 125 125 125 124 124 123 122 120 119 118 117 116 115 114 113 112 111 110 108 106 105 103 101 100 99
33 31 28 25 23 21 20 18 16 15 14 15 16 17 19 20 22 23 24 26 27 29 30 31 33 34 35 36 37 39 40 42 44 46 48 51 53 56 59 61 63 65 67 70 72 75 78 81 85 89 92 96 100 103 107 110 113 116 119 121 123 124 125 125 124 124 123 122 121 120 118 117 116 115 115 114 113 112 110 109 107 105 104 102 100 99
33 31 29 26 23 21 19 18 17 15 14 15 16 17 19 20 21 22 24 25 27 29 30 31 33 34 35 36 38 39 40 41 43 45 47 49 52 55 57 59 61 64 66 68 70 73 76 79 83 87 90 94 98 102 105 108 111 114 117 119 121 123 124 124 124 124 123 122 121 120 118 117 116 116 115 114 113 112 111 109 108 106 104 102 101 100
32 30 29 27 24 21 19 18 17 15 14 14 16 17 18 20 21 22 23 25 26 28 30 31 33 34 35 37 38 39 40 41 42 44 45 48 50 53 55 57 59 61 63 65 68 71 74 77 81 85 88 92 96 100 103 107 110 112 115 118 120 122 123 124 124 124 123 122 121 120 119 118 117 116 115 114 114 113 111 110 108 106 105 103 101 100
33 30 29 27 24 21 19 18 17 15 14 14 16 17 18 19 20 21 23 24 26 28 30 31 33 34 36 37 37 38 39 40 41 43 45 47 49 51 53 55 57 59 61 63 66 69 72 75 78 82 86 90 94 98 102 105 108 111 113 116 118 120 122 123 123 123 123 122 121 120 119 118 117 116 115 115 114 113 112 110 109 107 105 103 102 100
34 30 28 26 24 21 19 18 17 16 14 14 15 17 18 19 20 21 22 24 26 28 30 31 33 35 36 36 37 37 38 39 41 42 44 45 47 49 52 54 56 58 60 62 65 67 70 73 76 79 83 88 92 96 100 103 106 109 111 114 116 119 120 122 123 123 123 122 121 120 119 118 117 116 115 115 114 113 112 111 109 107 105 104 102 101
34 30 27 25 23 21 19 18 17 16 15 14 15 17 18 19 20 21 22 24 26 28 30 32 33 34 35 36 36 37 38 39 40 42 43 44 46 48 50 52 54 56 58 61 63 65 68 71 74 77 81 86 90 94 98 101 104 107 110 112 115 117 119 121 122 122 123 122 121 120 119 118 117 116 116 115 114 114 112 111 110 108 106 104 103 102
34 30 26 24 22 21 19 18 17 16 15 14 15 16 18 19 20 21 23 25 26 28 30 31 32 33 34 35 36 36 37 38 40 41 42 43 45 47 49 51 52 54 56 59 61 63 66 68 71 75 79 83 88 92 96 99 103 106 108 111 113 115 118 119 121 122 122 122 121 120 119 118 117 116 116 115 115 114 113 111 110 108 107 105 104 102
34 30 26 23 21 20 18 18 17 16 15 14 14 16 18 20 21 22 23 25 26 27 29 30 31 32 34 35 35 36 37 38 39 40 42 43 45 47 48 49 51 53 55 58 60 62 64 66 69 73 77 81 85 89 94 98 101 104 106 109 111 114 116 118 119 121 121 121 121 120 119 118 117 117 116 115 115 114 113 112 110 109 107 106 104 103
34 29 25 22 20 19 18 17 17 16 15 14 14 15 18 20 22 22 23 24 26 27 28 29 31 33 34 35 35 36 37 38 39 40 42 43 44 45 46 48 50 52 54 56 58 60 62 65 67 71 74 78 83 87 92 96 99 102 105 107 110 112 115 116 118 119 120 121 121 120 119 118 117 116 116 115 115 114 113 112 111 109 108 107 105 103
32 29 25 22 20 19 18 17 16 16 15 14 14 15 18 20 22 23 23 25 26 27 28 30 31 33 34 34 35 36 37 38 39 40 42 42 43 44 46 47 49 50 52 54 56 58 60 63 65 69 72 76 81 85 89 94 98 101 104 106 109 111 113 115 117 118 119 120 120 120 119 118 117 117 116 115 115 114 113 112 111 110 109 107 106 104
31 27 24 21 19 18 17 16 16 15 15 14 14 15 18 20 22 23 24 25 26 27 28 30 31 32 33 34 35 36 37 38 39 40 41 42 42 43 45 47 48 49 50 52 55 57 59 61 64 67 70 74 79 83 87 92 96 99 103 105 108 110 112 114 116 117 118 119 120 119 119 118 118 117 116 115 115 114 113 112 111 110 109 108 106 104
29 26 24 21 19 17 16 16 15 15 15 14 14 14 17 19 22 23 25 26 26 27 28 29 31 32 33 34 35 36 37 38 39 40 41 41 42 43 45 46 47 48 49 51 54 56 58 60 63 66 69 73 76 80 85 89 94 98 101 104 106 109 111 113 115 116 117 118 119 119 119 118 118 117 116 115 115 114 113 112 112 110 109 108 106 105
28 26 23 21 18 17 15 15 14 14 14 13 13 14 16 19 21 23 25 26 26 27 28 29 30 32 33 34 35 36 37 38 39 40 40 41 42 43 44 45 46 47 49 50 52 54 56 58 61 64 67 70 74 78 82 87 92 96 100 103 105 107 110 112 114 115 116 117 118 118 118 118 118 117 116 115 115 114 114 113 112 111 110 108 107 106
28 25 23 21 18 16 15 14 13 13 13 13 12 13 14 17 21 23 25 25 26 26 27 29 30 31 32 33 34 35 37 38 39 39 40 41 42 43 44 44 46 47 48 49 50 51 54 57 60 62 65 68 71 75 80 85 89 94 98 101 104 106 108 110 112 114 115 116 117 117 118 118 117 117 116 115 115 114 114 113 112 111 110 109 107 106
27 25 23 20 18 16 14 13 12 12 11 11 11 12 13 16 19 22 24 25 26 26 27 28 29 31 32 33 34 35 37 38 39 39 40 41 42 43 43 44 46 47 48 49 50 52 54 56 59 61 63 66 69 73 78 82 87 92 96 100 102 105 107 109 111 113 114 115 116 116 117 117 117 117 116 116 115 114 114 113 112 111 110 109 107 106
27 25 22 20 18 16 14 12 11 10 10 10 10 11 12 14 17 21 24 25 26 26 27 28 29 30 31 33 34 35 37 38 38 39 40 41 41 42 43 44 45 46 48 49 51 52 54 56 58 60 62 64 67 71 76 80 85 89 94 98 101 104 106 108 110 112 113 114 115 115 116 116 117 117 116 116 115 115 114 113 112 111 110 109 108 106
27 25 22 20 18 15 13 12 10 9 9 9 9 9 10 12 15 19 23 25 26 26 27 27 28 29 31 32 33 35 36 37 38 39 39 40 41 41 42 44 45 46 47 48 50 52 53 55 57 59 61 63 66 69 73 77 82 87 92 96 100 103 106 108 109 111 112 113 114 114 115 116 116 117 116 116 115 115 114 113 113 112 111 109 108 106
27 25 22 20 18 16 13 11 10 9 8 8 8 8 9 11 13 17 21 24 26 26 27 27 28 29 30 31 33 34 35 36 37 38 39 39 40 41 42 43 44 45 47 48 49 50 52 53 55 57 59 62 65 68 71 75 80 85 90 94 98 102 105 107 108 110 111 112 113 114 114 115 116 116 116 116 116 115 114 113 113 112 111 110 108 107
28 25 22 20 18 16 14 12 10 8 7 7 7 7 8 9 11 15 19 23 25 26 27 27 28 29 30 31 32 33 35 36 36 37 38 39 40 40 41 42 44 45 46 47 49 50 51 53 55 56 58 60 63 65 69 73 78 83 87 92 97 101 104 106 108 109 111 112 112 113 114 114 115 116 116 116 116 115 114 113 113 112 112 110 109 107
30 26 23 20 18 16 14 12 10 8 7 6 6 6 7 8 10 13 17 21 24 26 27 27 28 28 29 30 31 33 34 35 35 36 38 39 40 40 41 42 43 44 46 47 48 50 51 53 55 56 58 59 61 64 67 72 76 80 85 90 95 99 103 105 108 109 110 111 111 112 113 113 114 115 115 116 115 115 114 113 113 113 112 110 109 107
31 29 25 21 18 15 14 12 10 8 7 6 6 6 6 7 8 11 14 19 23 26 27 27 27 28 28 29 30 32 32 33 35 36 37 39 39 40 41 41 42 44 45 47 48 49 51 52 54 55 57 59 61 63 66 69 73 77 82 87 92 97 101 104 107 108 109 110 111 112 112 113 113 114 115 115 115 115 114 113 113 113 112 110 109 108
33 31 27 23 20 17 14 12 10 8 6 5 5 5 6 6 7 9 12 17 22 25 27 27 27 27 28 29 29 30 31 32 34 35 37 38 39 40 40 41 42 43 45 46 48 49 50 52 53 54 56 58 61 63 65 68 70 74 80 86 91 95 100 103 106 107 109 110 111 112 112 112 113 113 114 115 115 115 114 114 113 113 112 110 109 108
33 32 29 26 23 20 17 14 11 8 6 5 4 4 5 5 6 8 10 15 20 24 26 27 27 27 27 28 28 29 30 31 33 34 36 37 38 39 40 40 41 42 44 45 47 48 50 51 53 55 57 58 60 62 64 66 70 74 79 84 88 93 98 102 105 107 108 109 110 111 111 112 112 113 113 114 115 114 114 114 113 112 111 110 109 108
32 32 30 27 25 22 20 17 13 9 6 4 3 3 3 4 5 6 8 12 17 22 25 26 27 27 27 27 28 28 29 30 32 33 34 36 37 38 39 40 41 42 43 44 46 47 49 51 53 55 56 58 59 61 62 65 68 73 77 80 84 89 95 100 104 106 108 109 110 110 111 111 111 112 113 114 114 114 114 114 113 112 111 110 109 107
31 31 30 28 25 23 21 19 15 11 8 4 2 1 2 3 4 5 6 10 14 19 23 25 26 26 26 26 27 27 28 29 31 32 33 35 36 37 38 39 40 41 42 43 45 46 48 50 52 53 55 57 59 61 62 65 67 71 73 77 82 89 95 99 102 105 107 108 110 110 111 111 111 112 112 113 114 115 115 114 113 112 111 110 109 108
29 30 30 28 26 24 22 20 17 13 9 6 3 1 1 2 3 4 5 8 12 16 21 24 25 26 26 26 26 27 27 28 30 31 33 34 35 37 38 39 40 40 41 42 44 46 47 49 51 53 55 57 59 60 62 64 67 69 72 76 82 88 93 97 101 104 106 107 109 110 111 111 111 111 112 113 114 114 114 113 113 112 111 110 109 109
28 28 29 28 27 25 23 21 19 15 11 8 6 4 3 3 4 4 5 7 10 14 18 22 24 25 26 26 26 26 27 27 28 30 31 33 34 36 37 38 39 40 41 42 43 45 47 49 51 53 55 58 59 60 62 63 65 67 70 75 80 83 86 92 98 103 105 107 109 109 110 110 111 111 112 112 113 114 113 113 113 112 112 111 109 108
27 27 27 27 27 25 23 22 20 17 13 11 10 8 6 5 5 5 6 6 8 11 16 19 22 24 25 25 25 25 26 26 27 28 30 32 33 35 36 37 38 39 40 41 43 44 46 48 50 53 55 57 59 60 62 63 64 66 69 73 77 80 85 91 97 101 104 107 108 109 110 110 111 111 111 112 112 113 113 113 113 112 112 110 109 108
26 25 25 26 25 24 23 22 20 17 15 14 13 12 9 7 6 7 7 7 7 9 13 16 19 20 22 23 23 24 24 25 26 27 28 30 32 33 35 36 37 38 39 41 42 44 46 48 50 53 55 57 58 60 61 62 64 66 68 71 75 80 86 92 97 100 103 105 107 109 110 110 110 110 110 110 111 112 112 112 112 112 111 110 109 108
25 24 23 23 23 23 22 21 19 17 15 14 12 11 9 7 6 6 7 7 7 8 10 12 14 15 16 18 19 20 21 22 23 25 26 28 30 32 33 35 36 37 39 40 42 44 46 48 51 53 55 56 58 59 61 62 63 65 67 70 73 78 83 88 92 97 102 105 107 108 109 110 110 109 109 110 111 112 112 112 111 110 109 109 109 108
25 23 22 21 22 22 22 20 18 17 15 12 8 5 4 3 4 6 8 9 9 9 10 10 11 11 11 10 10 10 13 17 20 22 24 26 28 30 32 33 35 37 38 40 42 44 46 48 50 52 54 56 57 59 60 62 63 64 66 68 72 76 80 84 89 95 100 104 106 108 109 109 109 109 110 111 111 111 111 111 109 108 108 108 109 108
24 23 22 21 20 21 21 19 17 15 14 12 8 4 1 1 4 7 9 11 11 12 13 13 13 13 12 10 7 4 2 7 13 17 20 22 24 27 29 31 33 35 37 40 42 44 46 48 50 52 54 56 57 58 60 61 63 64 66 68 71 74 78 83 89 94 99 102 105 107 108 109 109 109 110 110 110 110 109 108 107 105 105 107 109 109
24 23 22 21 20 20 20 18 15 13 12 12 10 6 3 4 6 9 12 14 16 18 19 20 20 20 18 16 13 10 6 4 7 11 15 18 20 22 25 27 30 33 35 38 41 43 46 48 50 52 54 55 57 58 60 61 63 64 66 67 70 73 77 82 87 92 97 101 104 106 108 109 110 111 111 110 109 109 108 107 104 102 103 107 110 110
24 23 22 21 20 20 19 17 15 13 11 11 9 7 6 8 10 14 17 20 22 24 24 24 22 20 17 15 13 12 9 4 2 7 10 13 15 17 19 22 25 28 32 35 38 42 45 47 50 52 53 55 57 58 60 61 63 64 65 67 69 72 76 80 85 90 94 99 103 105 107 109 110 111 110 109 109 109 108 106 103 102 103 109 111 111
23 23 22 21 20 20 18 17 15 13 11 10 8 7 9 12 16 20 22 24 25 25 24 22 20 18 16 15 14 12 10 7 6 8 10 12 13 14 14 16 18 22 26 31 35 39 43 46 49 51 53 54 56 58 60 61 62 63 64 66 68 71 75 79 83 88 92 97 101 104 107 108 109 109 109 109 109 109 107 106 105 105 107 111 112 110
Wind_Direction
317 313 310 307 300 291 282 275 269 265 261 258 255 252 247 242 235 229 224 220 217 216 216 216 216 216 215 215 215 215 214 214 214 214 214 214 214 214 214 214 213 213 212 210 209 207 206 205 204 204 203 203 203 203 203 203 203 204 204 204 205 205 205 206 206 206 207 207 206 207 207 207 208 208 208 208 207 207 207 207 207 206 205 205 204 205
318 314 310 307 301 294 285 277 271 266 262 258 255 251 247 242 236 230 226 222 219 217 216 215 215 215 215 215 215 215 214 214 214 214 214 214 214 214 214 214 213 213 212 211 209 208 206 205 205 204 204 203 203 203 203 203 203 203 204 204 204 205 205 205 206 206 207 207 207 206 207 207 207 208 208 208 208 207 207 207 207 207 206 205 205 204
318 314 309 305 301 294 285 277 271 266 262 258 254 250 246 241 236 231 226 223 220 218 217 216 215 215 215 215 215 215 214 214 214 214 214 214 214 214 214 214 213 213 212 211 210 208 207 206 205 205 204 204 203 203 203 203 203 203 204 204 204 204 205 205 206 206 207 207 207 207 207 207 207 207 208 208 208 207 207 207 207 207 206 206 205 204
320 315 309 304 299 291 283 275 269 265 261 257 253 249 245 240 235 230 226 223 221 219 217 217 216 216 215 215 215 215 214 214 214 214 214 214 214 214 214 213 213 213 212 211 210 209 208 207 206 205 205 204 204 203 203 203 203 203 203 204 204 204 204 205 205 206 206 207 207 207 207 207 207 207 207 208 208 207 207 207 207 207 207 206 205 205
323 318 312 306 298 289 280 272 265 262 258 255 251 247 242 238 234 230 226 223 221 219 218 217 216 216 216 216 215 215 215 214 214 214 214 214 214 214 214 214 213 213 212 212 211 210 208 207 206 206 205 205 204 203 203 203 203 203 203 203 204 204 204 205 205 205 206 207 207 207 207 207 207 207 207 207 207 207 207 207 207 207 207 206 206 205
326 321 318 312 303 292 281 271 264 259 256 253 249 245 240 236 232 228 225 222 220 219 217 217 216 216 216 216 216 215 215 215 214 214 214 214 214 214 214 214 213 213 212 212 211 210 209 208 206 206 205 205 204 204 203 203 202 202 203 203 203 204 204 204 205 205 206 206 207 207 207 207 207 207 207 207 207 207 207 207 207 206 207 207 206 206
329 325 322 318 312 302 289 276 266 260 256 252 248 243 239 234 230 226 223 221 219 218 217 216 216 216 216 216 216 215 215 215 214 214 214 214 214 214 214 214 213 213 213 212 212 211 209 208 207 206 205 205 205 204 203 203 202 202 202 203 203 203 204 204 204 205 205 206 206 207 207 207 207 207 207 207 207 207 207 207 206 206 206 207 207 206
330 327 324 321 317 310 298 284 272 264 257 252 247 242 237 232 228 225 222 219 218 216 215 215 215 215 215 216 216 215 215 215 215 214 214 214 214 214 214 214 214 213 213 212 212 211 210 209 207 206 206 205 205 204 203 203 202 202 202 202 203 203 203 204 204 204 205 205 206 206 207 207 207 207 207 207 207 207 207 207 206 206 206 206 207 207
329 328 326 324 321 315 306 292 278 267 259 253 246 240 235 231 226 223 220 217 216 215 214 213 213 214 214 215 215 215 215 215 214 214 214 214 214 214 214 214 214 213 213 213 212 212 211 209 208 207 206 206 205 205 204 203 203 202 202 202 202 203 203 203 204 204 204 205 205 206 206 207 207 207 207 207 207 207 207 207 206 206 206 206 207 208
328 328 327 325 323 318 310 298 283 269 260 252 245 239 234 229 225 221 217 215 214 213 212 212 212 212 213 213 214 214 214 214 214 214 214 214 214 214 214 214 214 214 213 213 213 212 211 210 209 207 207 206 206 205 205 204 203 202 202 202 202 203 203 203 204 204 204 204 205 205 206 206 207 207 207 207 207 207 207 207 206 206 205 206 207 207
326 326 327 326 324 320 313 301 285 271 260 251 244 237 232 228 224 220 216 214 212 211 211 210 210 211 211 212 212 213 213 213 213 213 214 214 214 214 214 214 214 213 213 213 213 212 211 210 209 208 207 206 206 205 205 204 203 202 202 202 202 203 203 203 204 204 204 204 204 205 205 206 206 207 207 207 207 207 207 207 206 205 205 206 207 207
326 325 326 326 324 321 315 304 288 272 259 250 241 234 230 227 223 219 215 213 211 210 209 208 209 209 210 210 211 211 212 212 212 213 213 213 213 214 214 214 213 213 213 213 213 212 212 211 210 208 207 207 206 206 205 204 204 203 202 202 202 202 203 203 203 204 204 204 204 204 205 206 206 206 207 207 207 207 207 207 206 205 205 206 206 207
328 325 324 325 324 322 317 308 293 276 260 249 240 233 228 225 222 218 215 212 211 210 208 207 207 208 209 209 209 210 210 211 211 211 212 212 213 213 213 213 213 213 213 213 213 212 212 211 210 209 208 207 206 206 205 205 204 203 203 202 202 202 203 203 203 203 203 204 204 204 205 205 206 206 206 207 207 207 207 207 206 205 205 206 206 207
331 326 323 322 322 321 318 311 298 280 262 250 240 233 228 225 221 218 214 212 211 209 208 206 206 206 207 208 208 209 209 209 210 210 211 211 212 212 212 213 213 213 213 213 213 212 212 211 210 209 208 207 207 206 206 205 204 204 203 203 202 202 202 203 203 203 203 203 203 204 204 205 205 206 206 206 207 207 207 207 206 206 205 206 206 207
332 328 323 320 319 318 317 312 301 283 265 251 242 234 228 224 221 218 214 212 210 209 207 206 206 206 206 206 207 207 207 208 208 209 210 210 211 211 212 212 212 212 212 212 212 212 212 211 211 210 209 208 207 206 206 205 205 204 204 203 203 203 202 203 203 203 203 203 203 203 204 204 205 205 206 206 207 207 207 207 206 206 205 206 206 207
332 329 324 319 316 314 314 311 302 287 268 253 242 234 228 224 221 218 215 212 210 208 206 205 205 205 206 206 206 206 206 206 207 207 208 209 210 211 211 211 212 212 212 212 212 212 212 211 211 210 209 208 207 207 206 206 205 205 204 204 203 203 202 202 203 203 203 203 203 203 204 204 205 205 206 206 206 206 207 207 206 206 205 205 206 206
332 328 324 319 314 311 310 308 302 289 270 255 243 235 229 225 222 218 215 212 210 208 206 205 204 205 205 205 205 205 205 205 205 206 207 208 209 210 210 210 211 211 212 212 212 212 212 211 211 210 209 208 208 207 206 206 205 205 204 204 203 203 203 202 202 203 203 203 203 203 203 204 204 205 205 206 206 206 206 206 206 206 206 205 206 206
332 328 324 319 313 308 306 304 300 289 272 256 244 236 230 226 222 219 216 213 210 208 206 205 204 205 205 204 204 204 204 204 204 205 205 206 208 209 209 210 210 211 211 212 212 212 212 211 211 210 210 209 208 207 207 206 206 205 205 204 204 203 203 202 202 202 203 203 203 203 203 204 204 205 205 206 206 206 206 206 206 206 206 205 206 206
332 328 324 320 314 307 302 300 297 289 275 257 245 236 230 225 222 219 216 213 211 208 206 205 205 205 205 205 204 203 203 202 203 203 204 205 207 208 208 209 209 210 211 211 212 212 212 211 211 210 210 209 208 208 207 206 206 206 205 205 204 204 203 203 202 202 202 203 203 203 203 203 204 205 205 205 206 206 206 206 206 206 206 205 205 206
333 329 324 319 314 307 300 296 293 288 276 259 245 235 229 225 221 218 216 213 211 209 207 206 205 205 205 205 204 203 202 202 201 202 203 204 205 206 207 208 208 209 210 211 211 212 212 211 211 211 210 209 209 208 207 207 206 206 205 205 204 204 203 203 202 202 202 202 203 203 203 203 204 204 205 205 205 206 206 206 206 206 206 205 205 206
333 329 323 318 313 307 299 292 289 286 276 260 245 235 229 224 220 217 215 213 211 209 207 206 206 206 205 205 204 203 201 201 200 201 202 203 204 205 206 207 207 208 210 211 211 212 212 211 211 211 210 210 209 208 208 207 207 206 206 205 205 204 204 203 203 202 202 202 202 203 203 203 203 204 205 205 205 205 205 205 206 206 205 205 205 206
333 329 323 317 311 306 298 290 285 282 276 261 246 234 227 223 219 216 214 213 211 209 208 207 206 206 205 205 204 202 201 200 200 200 200 201 203 204 205 206 206 207 209 210 211 211 211 211 211 211 210 210 209 209 208 207 207 206 206 205 205 204 204 203 203 202 202 202 202 202 203 203 203 204 204 205 205 205 205 205 205 205 205 205 206 206
334 330 324 317 310 303 296 287 282 278 273 262 247 234 226 221 218 215 213 212 211 210 208 208 207 206 205 205 204 202 200 200 200 199 199 200 202 203 204 205 205 207 208 210 211 211 211 211 211 211 211 210 210 209 208 208 207 207 206 206 205 205 204 204 203 203 202 202 202 202 203 203 203 204 204 205 205 205 205 205 205 205 205 205 206 206
334 331 325 318 310 302 294 286 279 275 272 262 248 234 226 221 218 215 213 212 211 210 209 208 207 206 206 205 203 202 200 199 199 198 199 200 201 202 203 203 204 206 208 209 210 211 211 211 211 211 211 210 210 209 208 208 207 207 206 206 206 205 204 204 203 203 203 202 202 202 202 203 203 203 204 204 205 205 205 205 205 205 205 205 205 205
335 332 327 319 311 303 294 286 278 273 269 261 249 235 225 220 217 215 213 212 210 209 208 207 206 206 206 204 203 201 200 198 198 198 198 199 200 201 202 202 203 205 207 209 210 210 210 211 211 211 211 210 210 209 209 208 207 207 207 206 206 205 205 204 204 203 203 202 202 202 202 202 203 203 204 204 204 205 205 205 205 205 205 205 205 205
335 333 329 322 313 305 296 287 278 271 267 260 249 236 226 221 217 215 213 211 210 208 207 206 206 206 205 204 203 201 200 198 197 198 198 198 199 200 201 202 203 204 206 208 209 210 210 210 211 211 211 211 210 210 209 208 208 207 207 206 206 206 205 204 204 203 203 203 202 202 202 202 203 203 203 204 204 204 205 205 205 205 205 205 205 205
336 334 330 324 316 308 299 289 279 272 265 259 250 238 227 221 217 215 213 211 210 208 206 206 206 206 205 204 203 201 200 198 197 197 198 198 198 199 200 201 202 203 204 206 208 209 210 210 211 211 211 210 210 210 209 208 208 207 207 206 206 206 205 205 204 204 203 203 203 202 202 202 202 203 203 203 204 204 204 205 205 205 205 205 205 205
338 336 332 327 319 311 302 292 283 274 266 259 251 240 229 222 218 215 213 211 210 208 206 206 206 206 205 204 203 202 200 198 198 198 197 197 198 199 200 200 201 202 203 205 207 208 209 210 210 211 211 211 210 210 209 208 208 207 207 206 206 206 205 205 204 204 203 203 203 202 202 202 202 202 203 203 204 204 204 204 204 205 205 205 205 205
340 337 334 329 322 315 306 296 286 277 268 260 253 243 232 223 219 216 214 212 210 208 207 206 206 206 205 204 203 202 200 199 198 197 197 197 198 199 200 200 200 201 203 204 206 207 208 209 210 211 211 211 210 210 209 209 208 207 207 207 206 206 205 205 205 204 204 203 203 203 202 202 202 202 203 203 203 204 204 204 204 205 205 205 205 205
342 339 336 331 325 318 309 300 290 280 270 262 254 245 235 226 220 217 214 212 210 208 207 206 206 206 205 204 203 202 202 200 199 197 197 197 198 200 200 199 200 201 202 203 204 206 207 209 210 210 210 210 210 210 209 209 208 208 207 207 206 206 206 205 205 204 204 203 203 203 202 202 202 202 202 203 203 204 204 204 204 204 204 205 205 205
344 341 338 334 328 322 313 304 293 282 272 263 254 246 237 228 221 217 214 212 210 208 207 207 206 206 205 204 203 203 203 201 199 197 197 197 198 200 200 200 200 200 201 202 203 205 206 208 209 210 210 210 210 210 209 209 208 208 207 207 206 206 206 205 205 205 204 204 203 203 203 202 202 202 202 203 203 203 204 204 204 204 204 204 205 205
347 344 341 337 332 326 318 308 298 286 274 263 253 245 237 229 222 218 214 211 209 208 207 206 206 206 205 204 204 204 203 202 200 198 198 198 199 200 201 200 200 200 201 202 203 204 205 207 208 209 210 210 210 209 209 209 208 207 207 207 206 206 206 206 205 205 204 204 203 203 203 202 202 202 202 203 203 203 204 204 204 204 204 204 204 204
350 347 344 341 336 330 323 314 302 290 277 264 252 243 236 229 223 218 214 211 209 207 206 206 206 206 205 205 205 205 204 203 200 199 199 199 200 201 202 201 201 200 200 201 203 204 205 206 207 208 209 209 209 209 209 208 208 207 207 206 206 206 206 206 205 205 204 204 204 203 203 202 202 202 202 202 203 203 203 204 204 204 204 204 204 204
354 351 348 345 341 335 329 320 308 295 281 266 252 241 234 227 223 218 214 211 208 207 206 205 205 205 205 205 205 205 205 203 201 200 199 200 201 201 202 202 202 201 201 201 202 203 205 206 207 208 208 209 209 209 209 208 208 207 207 206 206 206 206 206 205 205 204 204 204 203 203 203 202 202 202 202 203 203 203 204 204 204 204 203 204 204
359 356 353 350 345 340 334 326 315 301 286 268 252 240 231 225 221 217 214 210 208 206 205 205 205 204 204 205 205 206 205 204 202 200 200 201 202 203 203 203 203 202 201 201 202 203 204 206 207 207 208 208 209 209 208 208 207 207 206 206 206 206 206 206 205 205 205 204 204 203 203 203 202 202 202 202 202 203 203 203 204 204 203 203 203 204
2 1 359 355 351 346 340 332 323 309 292 273 255 239 228 222 219 216 212 209 207 205 204 204 204 204 204 205 205 206 205 204 202 201 201 202 203 204 204 205 205 204 202 202 202 202 203 205 206 207 207 208 208 208 209 208 207 207 206 206 206 205 205 205 205 205 205 204 204 203 203 203 203 202 202 202 202 203 203 203 204 204 203 203 203 203
3 4 3 2 359 354 348 339 329 317 301 279 258 239 226 219 215 213 211 208 206 204 203 203 203 203 204 205 206 206 206 204 203 202 203 203 204 204 205 206 206 205 204 203 202 203 204 205 205 206 207 207 208 208 208 208 207 207 206 206 205 205 205 205 205 205 205 204 204 203 203 203 203 202 202 202 202 202 203 203 204 204 203 203 203 203
3 4 5 6 5 4 359 351 339 327 309 288 263 242 226 216 212 210 209 206 205 203 202 202 202 202 203 204 205 206 205 205 204 204 204 204 205 206 207 207 207 206 205 204 203 203 203 204 205 206 206 207 207 208 208 208 207 206 206 206 205 205 205 205 205 205 205 204 204 203 203 203 203 202 202 202 202 202 203 203 203 203 203 203 203 203
2 4 6 7 9 9 7 2 353 340 323 301 270 242 223 212 207 206 206 206 204 202 201 201 201 201 202 203 204 205 205 205 205 205 205 206 206 207 208 208 209 208 207 206 205 204 204 204 205 205 206 207 207 207 207 207 206 206 206 205 205 205 204 205 205 205 205 204 204 203 203 203 203 202 202 202 202 202 202 203 203 203 203 203 203 203
1 3 5 8 9 10 9 8 4 356 342 321 287 244 217 204 198 199 202 203 203 202 200 200 200 201 202 203 204 205 205 205 205 205 206 206 207 208 209 209 210 209 208 207 205 205 204 204 205 206 206 206 206 207 207 207 206 206 206 205 204 204 204 204 204 204 204 204 204 204 203 203 203 202 202 202 202 202 202 202 203 203 203 203 203 203
359 1 4 7 10 10 10 10 10 7 0 350 330 260 203 187 184 186 192 198 200 201 200 199 200 200 201 202 204 205 205 206 206 206 206 207 208 209 210 210 210 210 209 207 206 205 205 205 205 206 206 206 206 206 206 206 206 206 205 204 204 204 204 204 204 204 204 204 204 203 203 203 203 202 202 202 202 202 202 202 203 203 203 203 203 203
358 359 2 6 9 10 10 11 13 15 16 17 20 41 139 156 159 165 176 188 195 198 199 199 200 200 201 202 203 205 206 206 206 207 207 208 208 209 210 211 211 210 209 208 206 206 205 205 205 206 206 206 206 206 206 206 206 205 205 204 204 204 203 203 203 204 204 204 204 204 203 203 202 202 202 202 202 202 202 202 202 203 203 203 203 203
358 359 1 4 7 9 10 11 14 19 26 35 45 59 90 118 133 143 156 173 186 194 197 198 199 200 201 202 204 205 206 207 207 208 208 209 209 210 210 211 211 210 209 208 207 206 205 205 205 206 206 206 206 206 205 206 205 205 204 204 204 203 203 203 203 203 204 204 204 204 203 203 203 202 202 202 202 202 202 202 202 203 203 203 203 203
360 359 360 2 5 7 8 10 14 21 31 42 49 55 70 93 110 123 137 154 174 187 194 197 198 200 201 203 204 206 207 208 209 209 210 210 210 210 211 211 210 210 208 207 206 205 205 205 205 206 206 206 205 205 205 205 205 204 204 203 203 202 202 202 203 203 203 203 203 203 203 203 202 202 202 202 202 202 202 202 202 202 203 203 203 203
2 0 360 1 2 4 5 8 13 22 33 41 42 41 45 61 84 104 120 136 157 177 188 193 197 199 202 204 206 209 210 212 212 212 212 212 212 212 211 211 210 209 208 207 206 205 204 204 205 206 206 205 205 205 204 204 204 204 203 203 202 202 202 202 202 202 203 203 203 203 203 203 202 202 202 202 202 202 201 202 202 202 203 203 203 203
3 2 1 360 0 1 3 7 13 21 32 40 40 32 25 32 57 87 108 124 140 158 175 185 191 196 201 206 210 213 216 218 218 218 217 215 214 214 213 212 211 209 208 206 205 205 204 204 205 205 205 205 204 204 204 204 203 203 203 202 202 201 201 201 201 201 202 202 203 203 203 202 202 202 202 202 202 201 201 201 202 202 202 203 203 203
3 3 2 1 360 0 2 7 11 16 23 33 42 41 22 21 59 92 110 121 129 139 151 163 171 177 184 192 203 216 225 227 227 225 223 221 219 217 216 214 212 210 208 206 205 204 204 204 204 204 204 204 203 203 203 203 203 202 202 201 201 200 200 200 201 201 201 202 202 202 203 202 202 202 202 201 201 201 201 201 201 202 202 203 203 203
3 3 3 2 1 0 2 7 11 11 10 15 24 37 51 89 100 108 117 122 125 129 132 132 131 126 117 105 90 64 298 252 238 231 227 225 223 221 219 217 215 213 210 208 206 204 204 204 204 204 203 203 202 202 202 202 202 201 201 200 200 200 200 200 200 200 201 201 202 202 202 202 202 202 202 201 201 201 201 201 201 201 202 203 204 203
3 4 3 3 2 1 2 7 11 11 7 10 18 29 58 98 112 117 121 122 122 121 119 116 112 108 103 96 85 70 43 331 268 240 227 222 221 221 221 220 218 216 213 210 208 206 205 204 203 203 202 202 201 200 200 201 201 201 200 200 199 199 199 199 199 199 200 200 201 202 202 202 202 201 201 201 201 201 200 200 199 200 201 203 203 203
2 3 3 3 2 3 5 9 13 15 16 20 29 49 81 106 116 120 122 122 120 119 116 114 113 112 111 108 99 86 74 61 273 243 224 210 207 209 212 215 217 217 216 214 211 208 206 205 203 202 201 200 200 199 199 199 200 199 199 199 198 198 198 198 198 199 199 199 200 201 201 202 201 201 201 201 200 200 200 199 199 199 201 202 203 202
0 2 3 2 2 4 8 12 16 21 25 33 49 77 103 116 120 122 122 122 121 119 119 120 121 121 121 119 113 106 104 122 173 205 201 187 181 183 189 199 207 212 214 215 213 211 208 206 204 202 200 199 198 198 198 198 198 198 198 198 198 197 197 198 198 198 198 199 199 200 201 201 201 201 201 200 200 200 199 199 199 199 201 202 202 201
Height
5254 5252 5250 5250 5249 5249 5249 5249 5249 5249 5249 5249 5249 5249 5250 5251 5252 5253 5254 5255 5257 5259 5261 5263 5266 5269 5273 5276 5280 5284 5287 5291 5295 5300 5304 5309 5314 5319 5324 5330 5335 5341 5347 5354 5361 5369 5377 5384 5392 5399 5407 5415 5423 5432 5441 5450 5459 5467 5476 5484 5493 5501 5509 5518 5525 5533 5540 5548 5555 5563 5570 5578 5585 5592 5599 5606 5612 5619 5624 5631 5636 5642 5647 5652 5658 5663
5254 5252 5251 5249 5249 5249 5249 5249 5249 5248 5248 5249 5249 5249 5249 5250 5251 5252 5253 5254 5256 5258 5260 5262 5265 5268 5271 5274 5278 5281 5285 5289 5293 5297 5301 5306 5310 5315 5321 5326 5332 5338 5344 5350 5358 5365 5373 5381 5389 5396 5404 5412 5420 5428 5437 5446 5454 5463 5472 5480 5489 5497 5506 5514 5522 5529 5537 5544 5551 5559 5566 5573 5580 5588 5594 5601 5608 5614 5620 5627 5633 5639 5644 5649 5654 5659
5254 5252 5251 5249 5249 5249 5249 5248 5248 5247 5247 5248 5248 5248 5248 5249 5250 5251 5252 5254 5255 5257 5259 5261 5264 5266 5269 5272 5276 5279 5283 5287 5291 5295 5299 5303 5308 5312 5318 5323 5329 5334 5341 5348 5355 5362 5370 5378 5385 5393 5401 5409 5417 5425 5434 5442 5451 5459 5468 5477 5485 5494 5502 5510 5519 5526 5534 5541 5548 5555 5562 5569 5576 5583 5590 5597 5604 5610 5617 5623 5629 5635 5641 5646 5652 5657
5254 5252 5250 5249 5248 5248 5248 5247 5247 5246 5246 5246 5246 5247 5247 5248 5249 5250 5251 5253 5254 5256 5258 5260 5263 5265 5268 5271 5274 5278 5281 5285 5289 5293 5297 5301 5306 5310 5315 5321 5327 5333 5339 5345 5352 5359 5367 5374 5382 5389 5397 5404 5413 5421 5430 5439 5447 5456 5464 5473 5482 5490 5499 5507 5515 5523 5530 5538 5545 5552 5559 5566 5572 5579 5586 5593 5599 5606 5613 5620 5626 5632 5638 5643 5648 5654
5254 5251 5250 5249 5247 5247 5246 5245 5245 5245 5245 5245 5245 5246 5246 5247 5248 5249 5250 5252 5254 5255 5257 5259 5262 5264 5267 5270 5273 5276 5280 5284 5288 5292 5296 5300 5304 5309 5314 5319 5325 5331 5337 5343 5349 5356 5363 5370 5377 5384 5391 5399 5407 5415 5424 5433 5442 5451 5460 5469 5478 5486 5494 5502 5510 5518 5526 5534 5541 5548 5555 5562 5568 5575 5582 5589 5595 5603 5610 5616 5622 5628 5634 5639 5644 5649
5254 5251 5249 5248 5247 5245 5244 5244 5244 5243 5243 5244 5244 5245 5245 5246 5247 5249 5250 5251 5253 5254 5257 5259 5261 5263 5266 5269 5272 5275 5279 5282 5286 5290 5294 5299 5303 5308 5313 5318 5324 5329 5334 5340 5346 5352 5358 5365 5371 5378 5385 5392 5400 5408 5417 5426 5435 5445 5454 5463 5472 5480 5489 5497 5505 5513 5521 5529 5537 5544 5551 5558 5564 5571 5578 5585 5592 5599 5605 5612 5618 5624 5630 5635 5641 5646
5254 5251 5249 5247 5246 5245 5244 5243 5242 5242 5242 5243 5243 5244 5245 5245 5247 5248 5249 5250 5252 5254 5256 5258 5260 5262 5265 5268 5270 5274 5277 5281 5285 5289 5293 5297 5302 5306 5311 5316 5321 5326 5332 5337 5342 5348 5354 5360 5367 5374 5381 5388 5396 5404 5412 5420 5429 5439 5448 5457 5466 5475 5483 5492 5500 5508 5516 5524 5531 5539 5546 5553 5560 5567 5574 5580 5587 5594 5600 5606 5613 5619 5626 5632 5637 5642
5253 5251 5249 5247 5245 5244 5243 5243 5242 5241 5241 5242 5243 5244 5244 5245 5246 5247 5248 5249 5251 5253 5255 5257 5259 5261 5264 5266 5269 5273 5276 5279 5284 5288 5292 5296 5300 5305 5309 5314 5319 5324 5329 5334 5339 5345 5352 5359 5366 5374 5381 5388 5395 5403 5411 5419 5427 5436 5444 5453 5462 5471 5479 5487 5495 5503 5511 5519 5526 5534 5541 5549 5556 5563 5569 5576 5582 5589 5595 5601 5608 5615 5622 5628 5634 5639
5253 5250 5249 5246 5245 5243 5243 5242 5241 5241 5241 5242 5242 5243 5244 5244 5245 5247 5248 5249 5251 5252 5254 5256 5258 5260 5263 5265 5268 5271 5274 5278 5282 5286 5290 5294 5299 5303 5307 5312 5317 5322 5327 5333 5339 5344 5351 5359 5366 5374 5381 5388 5395 5403 5410 5418 5426 5435 5444 5452 5460 5468 5476 5484 5492 5499 5507 5514 5522 5529 5536 5544 5551 5558 5565 5572 5578 5584 5590 5597 5604 5611 5618 5624 5630 5635
5252 5250 5248 5246 5244 5243 5242 5241 5241 5240 5240 5241 5242 5242 5243 5244 5244 5246 5247 5249 5250 5251 5253 5255 5257 5259 5261 5264 5267 5270 5273 5277 5281 5284 5289 5293 5297 5301 5306 5310 5315 5321 5326 5332 5338 5344 5351 5358 5365 5372 5379 5386 5393 5400 5407 5415 5424 5433 5441 5450 5458 5466 5473 5481 5488 5495 5502 5509 5517 5524 5531 5539 5546 5554 5561 5567 5574 5580 5586 5593 5600 5607 5614 5619 5625 5631
5252 5250 5248 5246 5244 5243 5242 5241 5240 5240 5240 5240 5241 5242 5243 5243 5244 5245 5246 5248 5249 5251 5253 5254 5256 5259 5261 5263 5266 5269 5272 5276 5279 5283 5287 5291 5295 5299 5304 5309 5314 5320 5325 5331 5336 5343 5349 5355 5362 5368 5375 5381 5388 5395 5402 5410 5419 5428 5437 5445 5454 5462 5469 5476 5483 5490 5497 5504 5512 5519 5527 5534 5542 5549 5556 5563 5569 5575 5582 5589 5596 5603 5609 5615 5621 5627
5251 5250 5248 5246 5244 5243 5241 5241 5240 5240 5239 5240 5240 5241 5241 5242 5244 5244 5245 5247 5248 5250 5251 5254 5255 5258 5260 5262 5265 5268 5271 5275 5278 5282 5286 5290 5294 5298 5303 5308 5313 5318 5323 5329 5334 5340 5345 5352 5358 5364 5371 5377 5384 5390 5397 5405 5413 5422 5430 5439 5447 5455 5463 5470 5477 5484 5491 5499 5507 5514 5522 5529 5537 5544 5551 5558 5564 5571 5578 5585 5592 5599 5605 5611 5616 5622
5251 5249 5247 5246 5244 5242 5241 5240 5239 5239 5239 5239 5239 5240 5240 5241 5243 5244 5245 5246 5247 5249 5251 5253 5255 5257 5259 5261 5264 5267 5270 5274 5277 5280 5284 5288 5293 5297 5302 5307 5312 5316 5321 5326 5332 5337 5343 5349 5355 5361 5368 5374 5380 5387 5394 5401 5408 5416 5424 5432 5440 5448 5455 5463 5470 5478 5485 5494 5501 5509 5517 5524 5532 5539 5546 5553 5560 5567 5574 5581 5588 5594 5601 5606 5612 5618
5250 5248 5246 5245 5244 5242 5241 5240 5239 5239 5239 5239 5239 5239 5240 5241 5242 5243 5244 5245 5247 5248 5250 5252 5254 5256 5258 5261 5263 5266 5269 5272 5276 5279 5283 5287 5291 5295 5300 5305 5310 5314 5319 5325 5330 5335 5340 5346 5352 5359 5365 5371 5378 5384 5390 5397 5404 5411 5419 5426 5433 5441 5448 5456 5464 5472 5480 5489 5496 5504 5512 5519 5527 5534 5541 5548 5555 5562 5569 5576 5584 5590 5597 5603 5608 5614
5249 5247 5245 5244 5243 5242 5240 5239 5239 5239 5239 5239 5239 5239 5240 5240 5241 5242 5243 5244 5246 5248 5250 5252 5254 5255 5258 5260 5262 5265 5268 5272 5275 5279 5283 5286 5290 5294 5298 5303 5308 5313 5317 5323 5328 5333 5337 5343 5349 5356 5362 5368 5374 5381 5387 5394 5401 5408 5414 5421 5428 5435 5443 5451 5459 5467 5476 5484 5492 5500 5507 5515 5522 5529 5536 5543 5550 5558 5565 5572 5579 5586 5592 5599 5604 5610
5248 5246 5244 5244 5242 5241 5240 5239 5239 5238 5238 5238 5239 5239 5239 5240 5240 5241 5242 5244 5245 5247 5249 5251 5253 5255 5257 5259 5261 5264 5268 5271 5274 5278 5281 5285 5289 5293 5297 5302 5307 5311 5316 5321 5325 5330 5334 5340 5346 5353 5359 5365 5371 5378 5384 5390 5396 5403 5410 5417 5424 5431 5439 5447 5455 5463 5472 5480 5488 5496 5504 5511 5518 5525 5532 5539 5546 5553 5560 5568 5575 5582 5588 5594 5601 5606
5248 5246 5244 5243 5242 5241 5240 5239 5238 5238 5238 5238 5238 5238 5239 5239 5240 5241 5242 5244 5245 5247 5249 5250 5252 5254 5256 5258 5261 5264 5266 5270 5273 5276 5280 5284 5287 5291 5296 5301 5305 5310 5314 5319 5323 5327 5332 5338 5344 5350 5356 5362 5368 5374 5379 5386 5392 5399 5405 5412 5419 5427 5435 5443 5452 5460 5468 5476 5484 5492 5500 5507 5514 5521 5528 5535 5542 5549 5557 5564 5571 5578 5585 5591 5597 5603
5248 5246 5244 5242 5241 5240 5239 5238 5237 5237 5237 5237 5237 5238 5238 5239 5240 5241 5242 5243 5245 5246 5248 5250 5252 5253 5255 5258 5260 5263 5265 5269 5272 5275 5279 5283 5286 5290 5294 5299 5303 5308 5312 5317 5321 5325 5330 5336 5341 5347 5353 5358 5364 5370 5376 5382 5388 5394 5401 5409 5416 5424 5432 5440 5448 5456 5464 5473 5481 5489 5496 5504 5510 5517 5524 5531 5538 5546 5553 5560 5567 5574 5581 5588 5594 5600
5248 5245 5243 5241 5240 5239 5239 5238 5237 5236 5236 5236 5236 5237 5238 5238 5239 5240 5242 5243 5244 5246 5248 5249 5251 5253 5255 5256 5259 5261 5264 5268 5271 5275 5278 5281 5285 5289 5293 5298 5302 5306 5310 5315 5319 5323 5328 5333 5338 5343 5349 5355 5361 5367 5373 5379 5385 5392 5399 5406 5413 5421 5429 5437 5445 5453 5461 5469 5477 5485 5493 5500 5507 5514 5520 5528 5535 5542 5549 5557 5564 5570 5577 5584 5590 5596
5247 5244 5242 5240 5239 5239 5238 5237 5236 5236 5235 5236 5236 5236 5237 5238 5239 5240 5241 5242 5244 5245 5247 5249 5250 5252 5254 5256 5259 5261 5264 5268 5271 5274 5277 5280 5284 5288 5292 5296 5301 5305 5309 5313 5317 5321 5325 5330 5335 5340 5346 5352 5359 5364 5371 5377 5383 5389 5396 5403 5410 5418 5425 5434 5441 5449 5457 5465 5473 5481 5489 5496 5503 5509 5517 5524 5531 5539 5546 5553 5560 5567 5574 5581 5587 5593
5246 5244 5242 5240 5238 5237 5237 5236 5235 5235 5235 5235 5235 5235 5236 5237 5238 5239 5240 5242 5243 5245 5246 5248 5249 5251 5253 5255 5258 5261 5264 5267 5270 5273 5276 5279 5283 5287 5291 5295 5299 5303 5307 5311 5314 5319 5323 5328 5333 5339 5344 5350 5356 5362 5368 5374 5380 5387 5393 5400 5407 5414 5422 5430 5438 5446 5454 5461 5469 5477 5485 5492 5499 5506 5513 5520 5528 5535 5542 5549 5557 5564 5571 5578 5584 5590
5244 5243 5241 5239 5238 5236 5236 5235 5234 5234 5234 5234 5234 5234 5235 5236 5237 5239 5239 5241 5242 5244 5245 5247 5248 5250 5253 5255 5258 5260 5264 5267 5269 5272 5275 5279 5282 5286 5289 5293 5297 5301 5305 5309 5312 5317 5321 5326 5331 5337 5342 5348 5353 5359 5365 5371 5378 5384 5390 5397 5404 5411 5419 5426 5434 5442 5450 5458 5465 5473 5481 5488 5495 5502 5509 5517 5524 5531 5539 5546 5553 5560 5567 5574 5580 5586
5244 5241 5239 5238 5237 5235 5235 5234 5234 5233 5232 5233 5233 5234 5234 5236 5237 5238 5239 5240 5241 5243 5244 5246 5248 5251 5253 5255 5258 5260 5263 5266 5269 5272 5275 5278 5281 5284 5288 5292 5296 5300 5303 5307 5311 5315 5320 5325 5329 5334 5339 5345 5350 5356 5363 5369 5375 5381 5388 5394 5401 5408 5415 5423 5430 5438 5446 5454 5462 5469 5477 5484 5492 5499 5506 5514 5521 5528 5535 5543 5550 5557 5564 5570 5576 5582
5243 5240 5239 5237 5235 5234 5233 5233 5232 5231 5231 5232 5232 5233 5234 5235 5236 5237 5238 5239 5240 5242 5244 5246 5249 5250 5253 5255 5257 5260 5263 5265 5269 5272 5275 5277 5279 5282 5287 5291 5295 5298 5301 5305 5309 5314 5318 5323 5327 5332 5337 5342 5348 5354 5360 5366 5372 5379 5385 5392 5398 5405 5412 5419 5427 5435 5442 5450 5458 5465 5473 5481 5488 5496 5503 5510 5517 5524 5532 5539 5546 5553 5559 5566 5572 5579
5241 5239 5237 5235 5234 5233 5232 5232 5231 5232 5232 5233 5233 5233 5233 5234 5234 5236 5237 5238 5240 5242 5244 5246 5248 5249 5251 5254 5256 5259 5262 5264 5267 5270 5273 5275 5278 5282 5286 5290 5293 5296 5299 5303 5307 5312 5317 5321 5325 5329 5334 5339 5345 5351 5357 5363 5370 5376 5382 5389 5395 5402 5409 5416 5423 5431 5439 5446 5454 5462 5469 5477 5484 5492 5499 5506 5514 5521 5528 5535 5542 5549 5555 5562 5568 5575
5240 5238 5236 5234 5234 5233 5232 5232 5231 5231 5231 5230 5230 5231 5232 5233 5234 5235 5236 5238 5239 5241 5243 5244 5246 5248 5250 5253 5255 5258 5261 5264 5267 5269 5272 5275 5278 5281 5285 5288 5292 5295 5298 5302 5306 5311 5315 5319 5323 5327 5332 5337 5342 5348 5354 5360 5367 5373 5379 5385 5392 5398 5405 5412 5419 5427 5434 5442 5450 5458 5465 5473 5481 5488 5495 5503 5510 5517 5524 5531 5539 5545 5552 5558 5564 5571
5240 5237 5235 5234 5233 5232 5231 5230 5229 5229 5229 5229 5229 5229 5230 5232 5233 5234 5235 5236 5238 5239 5241 5243 5245 5247 5249 5252 5254 5257 5260 5263 5266 5268 5271 5274 5277 5280 5283 5287 5290 5294 5297 5301 5305 5309 5314 5317 5321 5325 5329 5334 5339 5344 5351 5357 5364 5369 5375 5381 5388 5394 5401 5408 5415 5423 5431 5438 5446 5454 5461 5469 5477 5484 5491 5499 5506 5513 5520 5527 5534 5541 5548 5554 5561 5567
5239 5237 5235 5233 5232 5231 5230 5229 5229 5229 5228 5228 5228 5229 5229 5231 5232 5233 5234 5235 5237 5239 5241 5243 5244 5246 5249 5251 5253 5256 5259 5262 5265 5267 5270 5274 5276 5279 5282 5285 5289 5293 5296 5299 5303 5307 5311 5315 5319 5323 5327 5331 5336 5342 5348 5354 5360 5366 5372 5378 5384 5391 5398 5405 5412 5419 5427 5435 5442 5450 5458 5465 5473 5480 5488 5495 5502 5509 5516 5523 5530 5537 5544 5550 5557 5564
5239 5237 5235 5233 5232 5230 5229 5229 5228 5228 5228 5227 5228 5228 5229 5230 5231 5232 5233 5235 5237 5238 5240 5242 5244 5246 5248 5250 5253 5256 5259 5261 5264 5266 5270 5273 5275 5278 5280 5284 5288 5291 5294 5297 5301 5305 5309 5313 5317 5320 5324 5329 5334 5339 5345 5351 5357 5363 5370 5376 5383 5389 5396 5403 5410 5417 5424 5431 5439 5446 5454 5462 5469 5476 5484 5491 5498 5505 5512 5519 5526 5533 5539 5546 5553 5560
5239 5236 5234 5233 5231 5230 5229 5228 5227 5227 5227 5227 5227 5227 5228 5229 5230 5231 5233 5234 5236 5238 5239 5241 5243 5245 5247 5250 5253 5255 5258 5260 5263 5266 5269 5272 5274 5276 5279 5283 5287 5289 5293 5296 5300 5304 5308 5311 5314 5319 5323 5327 5332 5338 5343 5348 5354 5361 5367 5374 5381 5387 5394 5400 5407 5414 5421 5428 5436 5443 5450 5458 5465 5473 5480 5487 5494 5501 5508 5515 5522 5529 5536 5543 5550 5557
5239 5236 5234 5233 5231 5230 5229 5228 5227 5227 5226 5226 5226 5227 5227 5228 5229 5230 5232 5234 5235 5237 5239 5240 5242 5244 5247 5249 5252 5254 5256 5259 5262 5265 5268 5270 5273 5275 5278 5281 5284 5288 5291 5295 5299 5302 5305 5309 5312 5316 5320 5325 5330 5335 5340 5346 5352 5358 5364 5371 5378 5384 5390 5397 5403 5410 5417 5424 5432 5439 5447 5454 5462 5469 5476 5483 5490 5497 5504 5511 5518 5525 5532 5540 5547 5554
5239 5237 5235 5233 5231 5230 5229 5228 5227 5226 5226 5226 5226 5226 5226 5227 5228 5229 5231 5233 5234 5236 5238 5240 5242 5244 5246 5249 5251 5253 5255 5258 5261 5264 5267 5269 5272 5274 5277 5280 5283 5287 5290 5293 5296 5299 5303 5306 5310 5314 5319 5323 5328 5332 5337 5343 5349 5355 5361 5368 5375 5381 5387 5393 5399 5406 5414 5421 5428 5436 5443 5451 5458 5465 5472 5479 5486 5493 5500 5507 5514 5521 5529 5536 5544 5551
5239 5237 5235 5233 5231 5230 5229 5228 5227 5226 5226 5225 5225 5225 5226 5226 5227 5229 5230 5232 5234 5236 5238 5239 5241 5243 5245 5248 5250 5252 5255 5258 5260 5263 5266 5269 5271 5274 5276 5279 5282 5285 5289 5292 5295 5298 5301 5304 5307 5311 5316 5321 5325 5329 5334 5339 5345 5352 5358 5365 5372 5378 5384 5389 5396 5403 5410 5418 5425 5432 5439 5447 5454 5461 5469 5475 5482 5489 5496 5504 5510 5518 5525 5533 5540 5547
5240 5238 5235 5234 5232 5230 5229 5228 5227 5226 5226 5225 5225 5225 5225 5226 5227 5228 5229 5231 5233 5235 5237 5239 5241 5243 5245 5247 5249 5252 5254 5257 5260 5263 5265 5269 5271 5273 5275 5278 5281 5284 5287 5290 5294 5297 5300 5303 5306 5310 5314 5318 5323 5327 5332 5337 5343 5349 5355 5362 5368 5374 5380 5386 5393 5400 5407 5414 5421 5429 5436 5443 5450 5457 5464 5471 5478 5485 5493 5500 5507 5514 5521 5529 5537 5544
5241 5238 5236 5234 5232 5231 5229 5228 5227 5227 5226 5225 5225 5225 5225 5225 5226 5227 5229 5230 5232 5234 5236 5238 5240 5242 5244 5246 5249 5250 5253 5256 5259 5262 5265 5268 5270 5272 5274 5277 5279 5283 5286 5289 5292 5295 5299 5302 5305 5309 5313 5316 5321 5325 5330 5334 5339 5345 5351 5358 5364 5370 5377 5383 5390 5397 5404 5410 5418 5425 5432 5439 5447 5454 5461 5468 5475 5482 5489 5497 5504 5511 5519 5527 5534 5541
5241 5239 5237 5235 5233 5231 5230 5229 5228 5227 5226 5226 5225 5225 5225 5225 5226 5227 5228 5229 5231 5234 5235 5237 5239 5242 5244 5246 5248 5250 5252 5255 5259 5261 5264 5266 5269 5271 5274 5276 5278 5281 5284 5287 5290 5293 5296 5299 5303 5306 5310 5315 5319 5323 5327 5332 5336 5342 5348 5354 5361 5367 5374 5380 5387 5393 5400 5407 5414 5422 5429 5436 5443 5450 5458 5465 5472 5479 5487 5494 5501 5508 5516 5524 5531 5538
5242 5239 5237 5235 5234 5232 5230 5229 5228 5227 5227 5226 5226 5225 5225 5225 5226 5227 5228 5229 5231 5233 5235 5237 5239 5241 5243 5245 5247 5250 5252 5255 5258 5260 5262 5265 5267 5270 5272 5274 5277 5280 5283 5286 5289 5292 5294 5298 5301 5305 5309 5313 5317 5320 5324 5329 5334 5340 5346 5352 5358 5364 5371 5377 5383 5390 5397 5404 5412 5419 5426 5433 5440 5447 5454 5462 5469 5476 5483 5490 5498 5505 5513 5521 5528 5534
5243 5240 5238 5236 5234 5233 5231 5230 5229 5228 5227 5226 5226 5226 5225 5226 5226 5227 5228 5229 5230 5232 5234 5236 5239 5241 5243 5245 5247 5249 5252 5254 5257 5259 5261 5264 5266 5269 5271 5274 5276 5279 5282 5284 5287 5290 5293 5297 5300 5304 5308 5311 5314 5317 5321 5326 5332 5338 5344 5349 5354 5361 5368 5374 5381 5387 5394 5402 5409 5415 5422 5429 5437 5444 5451 5458 5465 5472 5479 5487 5495 5502 5510 5518 5524 5531
5244 5241 5239 5237 5235 5233 5232 5230 5229 5228 5227 5227 5226 5226 5226 5226 5226 5227 5228 5229 5230 5232 5234 5236 5238 5240 5242 5244 5247 5249 5251 5253 5256 5258 5260 5263 5265 5268 5270 5272 5275 5277 5280 5283 5286 5289 5292 5295 5298 5301 5305 5308 5312 5315 5319 5324 5329 5334 5339 5344 5351 5358 5364 5371 5377 5384 5392 5399 5405 5412 5420 5427 5434 5440 5448 5455 5462 5469 5476 5484 5492 5499 5507 5514 5521 5527
5245 5242 5240 5238 5236 5234 5233 5231 5230 5229 5228 5227 5227 5226 5226 5226 5227 5227 5228 5229 5230 5232 5234 5236 5238 5240 5242 5244 5246 5249 5250 5253 5255 5257 5259 5262 5264 5266 5269 5271 5273 5276 5279 5282 5285 5288 5291 5293 5296 5299 5302 5306 5309 5314 5318 5323 5327 5331 5335 5341 5349 5356 5362 5368 5374 5381 5388 5395 5402 5409 5417 5424 5431 5438 5444 5452 5459 5466 5474 5481 5489 5496 5504 5511 5518 5525
5246 5244 5241 5239 5237 5235 5234 5232 5231 5230 5229 5228 5228 5227 5227 5227 5228 5228 5229 5230 5231 5233 5234 5237 5239 5241 5243 5244 5246 5248 5250 5252 5254 5256 5258 5260 5263 5265 5267 5269 5272 5274 5277 5280 5283 5286 5289 5292 5294 5298 5301 5304 5308 5311 5315 5320 5324 5329 5334 5340 5347 5353 5359 5365 5372 5379 5386 5392 5399 5407 5414 5420 5428 5434 5442 5449 5456 5463 5471 5478 5485 5493 5500 5507 5515 5522
5247 5245 5242 5240 5238 5236 5235 5233 5232 5231 5230 5229 5229 5229 5229 5229 5229 5229 5230 5231 5232 5234 5235 5237 5239 5241 5243 5245 5246 5248 5250 5252 5254 5255 5257 5259 5261 5264 5265 5268 5270 5273 5276 5279 5281 5284 5287 5290 5293 5296 5299 5302 5306 5309 5313 5317 5321 5326 5332 5338 5343 5348 5354 5362 5369 5377 5384 5391 5397 5404 5411 5417 5424 5432 5439 5446 5453 5461 5468 5476 5484 5491 5498 5505 5512 5519
5248 5246 5244 5242 5239 5238 5236 5235 5233 5232 5231 5231 5230 5230 5229 5229 5230 5230 5231 5232 5233 5234 5236 5238 5239 5241 5243 5245 5247 5248 5250 5251 5253 5255 5257 5259 5260 5262 5264 5266 5269 5271 5274 5277 5279 5282 5285 5288 5291 5293 5296 5299 5303 5307 5311 5315 5319 5324 5330 5335 5339 5345 5352 5360 5367 5374 5380 5387 5394 5402 5409 5416 5423 5430 5436 5444 5451 5459 5467 5474 5482 5489 5495 5503 5510 5517
5249 5248 5245 5243 5241 5239 5238 5236 5235 5234 5233 5232 5232 5231 5231 5231 5231 5231 5232 5233 5234 5235 5237 5238 5240 5242 5244 5245 5247 5249 5250 5252 5253 5254 5256 5258 5259 5261 5263 5265 5267 5269 5272 5275 5278 5280 5283 5286 5289 5291 5294 5297 5300 5304 5308 5313 5318 5323 5328 5332 5338 5344 5352 5359 5364 5370 5377 5384 5391 5398 5406 5413 5421 5428 5434 5441 5449 5457 5464 5472 5479 5485 5492 5499 5507 5514
5251 5249 5247 5245 5243 5241 5239 5238 5236 5235 5234 5234 5233 5233 5232 5232 5232 5233 5233 5234 5235 5236 5238 5239 5241 5243 5244 5246 5248 5249 5251 5253 5254 5255 5256 5258 5259 5260 5262 5264 5266 5268 5270 5273 5275 5278 5281 5283 5285 5288 5291 5295 5299 5303 5307 5311 5315 5320 5325 5330 5336 5342 5348 5353 5359 5366 5374 5381 5388 5395 5403 5410 5418 5425 5432 5439 5447 5454 5462 5469 5475 5482 5489 5497 5504 5511
5252 5250 5248 5246 5244 5242 5241 5239 5238 5236 5236 5235 5235 5235 5234 5234 5234 5234 5234 5235 5236 5237 5239 5241 5243 5244 5246 5248 5249 5251 5252 5253 5254 5255 5256 5258 5259 5260 5261 5263 5264 5267 5269 5271 5273 5276 5278 5280 5283 5285 5289 5293 5297 5301 5305 5309 5314 5318 5323 5328 5334 5339 5344 5349 5356 5364 5372 5379 5386 5394 5400 5408 5415 5422 5429 5437 5444 5451 5459 5466 5473 5480 5488 5495 5502 5509
5253 5251 5249 5247 5245 5244 5242 5240 5239 5238 5237 5237 5237 5237 5237 5236 5236 5236 5236 5237 5238 5239 5240 5242 5244 5246 5248 5250 5251 5253 5254 5254 5254 5255 5256 5258 5259 5259 5260 5262 5263 5265 5267 5269 5271 5273 5276 5278 5281 5284 5287 5291 5295 5299 5303 5307 5312 5316 5321 5326 5331 5337 5342 5349 5356 5364 5370 5377 5384 5391 5398 5405 5413 5420 5427 5434 5440 5448 5456 5464 5472 5479 5487 5493 5499 5506
5254 5252 5250 5248 5247 5245 5243 5242 5240 5239 5239 5238 5237 5237 5237 5237 5237 5237 5238 5238 5239 5240 5242 5244 5245 5248 5249 5252 5253 5255 5255 5255 5255 5255 5256 5257 5258 5259 5260 5261 5262 5264 5265 5267 5269 5271 5273 5275 5278 5282 5285 5289 5293 5297 5301 5305 5310 5314 5319 5324 5329 5334 5340 5346 5353 5360 5367 5374 5381 5388 5395 5403 5411 5418 5424 5431 5438 5446 5454 5463 5471 5478 5484 5490 5497 5504
5255 5253 5251 5249 5248 5246 5244 5243 5242 5241 5240 5239 5239 5238 5238 5238 5239 5239 5239 5240 5241 5242 5243 5245 5246 5248 5250 5251 5254 5255 5257 5256 5256 5255 5255 5256 5257 5259 5260 5261 5262 5263 5264 5266 5268 5269 5271 5273 5276 5279 5282 5287 5291 5294 5299 5303 5307 5312 5316 5321 5327 5332 5338 5343 5349 5356 5363 5371 5379 5386 5393 5400 5408 5414 5421 5429 5437 5445 5453 5461 5469 5476 5483 5488 5494 5501
5256 5254 5252 5250 5249 5247 5245 5244 5243 5242 5241 5240 5240 5239 5239 5239 5240 5240 5241 5242 5243 5244 5245 5246 5247 5249 5250 5251 5252 5254 5256 5258 5257 5256 5256 5257 5257 5258 5259 5260 5261 5262 5264 5265 5266 5268 5270 5272 5274 5277 5281 5285 5289 5293 5297 5301 5305 5310 5315 5320 5325 5330 5335 5341 5347 5354 5361 5369 5376 5384 5391 5398 5405 5412 5419 5427 5435 5444 5451 5459 5466 5474 5479 5484 5491 5499
5257 5255 5253 5252 5250 5248 5246 5245 5244 5243 5242 5241 5241 5241 5241 5241 5241 5242 5243 5244 5244 5245 5246 5248 5249 5249 5250 5251 5251 5252 5254 5257 5258 5258 5258 5258 5258 5259 5259 5260 5261 5262 5263 5264 5265 5266 5268 5270 5273 5276 5279 5283 5287 5291 5295 5299 5303 5308 5313 5318 5323 5329 5334 5339 5345 5353 5360 5367 5374 5381 5388 5395 5403 5411 5419 5427 5434 5441 5449 5456 5464 5470 5475 5481 5489 5498